Regional Weather Roundup
Issued by NWS

Home | Current Version | Previous Version | Graphics & Text | Print | Product List | Glossary On
Versions: 1 2 3 4 5 6 7 8 9 10 11 12 13 14 15 16 17 18 19 20 21 22 23 24 25 26 27 28 29 30 31 32 33 34 35 36 37 38 39 40 41 42 43 44 45 46 47 48 49 50
000
ASUS43 KLMK 261010
RWRKY
KENTUCKY REGIONAL WEATHER ROUNDUP
NATIONAL WEATHER SERVICE LOUISVILLE KY
600 AM EDT FRI MAY 26 2017

NOTE "FAIR" INDICATES FEW OR NO CLOUDS BELOW 12,000 FEET
WITH NO SIGNIFICANT WEATHER AND/OR OBSTRUCTIONS TO VISIBILITY.

KYZ001>023-026-027-061>063-070>075-261100-
WESTERN AND SOUTH CENTRAL KENTUCKY

CITY           SKY/WX    TMP DP  RH WIND       PRES   REMARKS
PADUCAH        CLEAR     62  52  69 S6        29.85R
HENDERSON      CLEAR     57  53  86 S5        29.88R
OWENSBORO      CLEAR     55  53  93 S3        29.88R
HOPKINSVILLE   PTCLDY    57  53  86 S3        29.90R
BOWLING GREEN  CLEAR     57  53  86 CALM      29.92R
GLASGOW        CLEAR     54  54 100 CALM      29.92R
$$

KYZ024-025-028>034-038-045-046-053-261100-
NORTH CENTRAL KENTUCKY

CITY           SKY/WX    TMP DP  RH WIND       PRES   REMARKS
LOUISVILLE/SDF PTCLDY    57  53  86 SE3       29.88R
LOUISVILLE/LOU CLEAR     54  54 100 CALM      29.89R
FORT KNOX      CLEAR     53  52  95 S3        29.88R
$$

KYZ035>037-039>044-047>052-055>060-089>105-261100-
NORTHEAST KENTUCKY

CITY           SKY/WX    TMP DP  RH WIND       PRES   REMARKS
LEXINGTON      CLEAR     54  51  90 SW8       29.90R
COVINGTON      PTCLDY    50  49  96 SW3       29.86R
FRANKFORT      CLEAR     53  50  89 SW5       29.88R FOG
$$

KYZ054-064>069-076>088-106>120-261100-
SOUTHEAST KENTUCKY

CITY           SKY/WX    TMP DP  RH WIND       PRES   REMARKS
JACKSON        CLEAR     55  53  93 CALM      29.92R
LONDON         CLEAR     50  48  93 SE3       29.95R FOG
SOMERSET       FOG       50  50 100 CALM      29.95R VSB 3/4
MIDDLESBORO    CLEAR     50  50 100 CALM      29.97R FOG
MONTICELLO     SUNNY     48  47  96 N9        29.96R
$$




USA.gov is the U.S. government's official web portal to all federal, state and local government web resources and services.